FW5890 Weather Reports


Display with metric or nautical units.
time (UTC)temp
F
wind
direction
speed
MPH
gust
MPH
rain 1hr
in
rain 24hr
in
rain mn
in
humidity
%
barometer
mb
20260502195549 63 288 7.0 14.0 0.00 0.00 0.00 36 1014.5
20260502195022 63 301 5.0 14.0 0.00 0.00 0.00 37 1014.6
20260502194603 63 340 4.0 18.0 0.00 0.00 0.00 38 1014.7
20260502194017 63 344 7.0 18.0 0.00 0.00 0.00 37 1014.9
20260502193543 63 325 2.0 14.0 0.00 0.00 0.00 38 1014.9
20260502193109 63 346 6.0 14.0 0.00 0.00 0.00 35 1015.0
20260502192536 63 322 4.0 11.0 0.00 0.00 0.00 38 1015.1
20260502192001 62 298 5.0 12.0 0.00 0.00 0.00 37 1015.3
20260502191558 62 315 4.0 12.0 0.00 0.00 0.00 37 1015.3
20260502191008 62 328 3.0 11.0 0.00 0.00 0.00 37 1015.5
20260502190534 62 302 4.0 11.0 0.00 0.00 0.00 37 1015.6
20260502185549 61 329 6.0 11.0 0.00 0.00 0.00 36 1015.8
20260502185016 61 22 4.0 12.0 0.00 0.00 0.00 39 1015.8
20260502184559 60 319 4.0 15.0 0.00 0.00 0.00 37 1016.0
20260502184040 61 323 9.0 15.0 0.00 0.00 0.00 38 1016.2
20260502183536 61 328 3.0 11.0 0.00 0.00 0.00 37 1016.1
20260502183105 61 325 4.0 10.0 0.00 0.00 0.00 38 1016.4
20260502182542 60 321 2.0 9.0 0.00 0.00 0.00 40 1016.3
20260502182024 60 324 5.0 13.0 0.00 0.00 0.00 38 1016.5
20260502181552 59 261 6.0 13.0 0.00 0.00 0.00 39 1016.5
20260502181029 59 284 3.0 11.0 0.00 0.00 0.00 40 1016.6
20260502180507 59 327 4.0 13.0 0.00 0.00 0.00 38 1016.7
20260502170514 57 327 2.0 10.0 0.00 0.00 0.00 40 1017.7
20260502170108 57 306 3.0 12.0 0.00 0.00 0.00 39 1017.8
20260502164011 57 321 3.0 10.0 0.00 0.00 0.00 41 1018.0
20260502163558 56 350 5.0 10.0 0.00 0.00 0.00 40 1018.2
20260502163048 56 289 3.0 10.0 0.00 0.00 0.00 44 1018.2
20260502162532 56 305 3.0 11.0 0.00 0.00 0.00 44 1018.3
20260502162007 56 15 4.0 9.0 0.00 0.00 0.00 43 1018.4
20260502161543 55 331 2.0 9.0 0.00 0.00 0.00 44 1018.4
20260502161004 55 333 4.0 10.0 0.00 0.00 0.00 43 1018.5
20260502160542 55 294 6.0 13.0 0.00 0.00 0.00 43 1018.5
20260502152039 54 304 1.0 12.0 0.00 0.00 0.00 49 1018.9
20260502151533 53 315 5.0 12.0 0.00 0.00 0.00 48 1019.0
20260502151028 53 329 1.0 10.0 0.00 0.00 0.00 51 1019.0
20260502150524 53 347 3.0 10.0 0.00 0.00 0.00 50 1019.1
20260502130516 44 317 1.0 8.0 0.00 0.00 0.00 64 1019.5
20260502123516 42 360 1.0 5.0 0.00 0.00 0.00 67 1019.5
20260502123039 42 360 1.0 5.0 0.00 0.00 0.00 67 1019.5
20260502122559 42 360 1.0 5.0 0.00 0.00 0.00 68 1019.5
20260502122007 41 360 1.0 5.0 0.00 0.00 0.00 69 1019.5
20260502121526 40 360 2.0 5.0 0.00 0.00 0.00 70 1019.5
20260502121110 39 360 0.0 4.0 0.00 0.00 0.00 73 1019.5
20260502120543 38 317 0.0 3.0 0.00 0.00 0.00 76 1019.4
20260502120104 37 360 1.0 3.0 0.00 0.00 0.00 77 1019.5
20260502115513 37 360 0.0 1.0 0.00 0.00 0.00 79 1019.4
20260502115049 36 360 0.0 3.0 0.00 0.00 0.00 79 1019.4
20260502114509 35 360 0.0 3.0 0.00 0.00 0.00 80 1019.3
20260502114048 35 360 0.0 2.0 0.00 0.00 0.00 80 1019.3
20260502113608 35 360 0.0 0.0 0.00 0.00 0.00 81 1019.3
20260502113020 35 360 0.0 0.0 0.00 0.00 0.00 80 1019.3
20260502112602 35 360 0.0 0.0 0.00 0.00 0.00 78 1019.2
20260502112049 35 360 0.0 0.0 0.00 0.00 0.00 78 1019.2
20260502111507 36 360 0.0 0.0 0.00 0.00 0.00 76 1019.2
20260502111039 36 360 0.0 0.0 0.00 0.00 0.00 76 1019.1
20260502110522 36 360 0.0 0.0 0.00 0.00 0.00 75 1019.2
20260502110051 37 360 0.0 1.0 0.00 0.00 0.00 74 1019.2
20260502105511 37 360 0.0 1.0 0.00 0.00 0.00 74 1019.2
20260502105052 37 360 0.0 3.0 0.00 0.00 0.00 73 1019.2
20260502104501 37 360 0.0 3.0 0.00 0.00 0.00 72 1019.2
20260502104024 38 360 0.0 0.0 0.00 0.00 0.00 73 1019.2
20260502103542 38 360 0.0 0.0 0.00 0.00 0.00 72 1019.2
20260502103108 38 360 0.0 0.0 0.00 0.00 0.00 71 1019.2
20260502102512 39 360 0.0 1.0 0.00 0.00 0.00 69 1019.2
20260502102047 39 360 0.0 2.0 0.00 0.00 0.00 69 1019.2
20260502101524 39 360 0.0 2.0 0.00 0.00 0.00 68 1019.1
20260502101049 39 360 0.0 5.0 0.00 0.00 0.00 67 1019.2
20260502100543 39 360 1.0 5.0 0.00 0.00 0.00 67 1019.2
20260502100106 39 360 0.0 1.0 0.00 0.00 0.00 68 1019.2
20260502091532 42 360 0.0 3.0 0.00 0.00 0.00 63 1019.1
20260502091010 42 360 0.0 4.0 0.00 0.00 0.00 61 1019.0
20260502090527 42 360 0.0 5.0 0.00 0.00 0.00 60 1019.0
20260502071519 39 360 0.0 4.0 0.00 0.00 0.00 71 1019.3
20260502071004 37 360 1.0 4.0 0.00 0.00 0.00 76 1019.3
20260502070526 36 360 0.0 3.0 0.00 0.00 0.00 82 1019.3
20260502065544 36 360 0.0 0.0 0.00 0.00 0.00 84 1019.3
20260502065002 36 360 0.0 0.0 0.00 0.00 0.00 84 1019.4
20260502064618 36 360 0.0 0.0 0.00 0.00 0.00 84 1019.4
20260502064041 36 360 0.0 0.0 0.00 0.00 0.00 83 1019.4
20260502063504 36 360 0.0 0.0 0.00 0.00 0.00 83 1019.5
20260502063055 36 360 0.0 0.0 0.00 0.00 0.00 83 1019.5
20260502062537 36 360 0.0 0.0 0.00 0.00 0.00 83 1019.5
20260502062049 36 360 0.0 0.0 0.00 0.00 0.00 83 1019.5
20260502061540 36 360 0.0 0.0 0.00 0.00 0.00 83 1019.5
20260502061103 36 360 0.0 0.0 0.00 0.00 0.00 83 1019.5
20260502060523 37 360 0.0 0.0 0.00 0.00 0.00 83 1019.5
20260502060011 37 360 0.0 0.0 0.00 0.00 0.00 82 1019.5
20260502055601 37 360 0.0 0.0 0.00 0.00 0.00 82 1019.5
20260502055040 37 360 0.0 0.0 0.00 0.00 0.00 82 1019.5
20260502054529 37 360 0.0 0.0 0.00 0.00 0.00 82 1019.5
20260502054049 37 360 0.0 0.0 0.00 0.00 0.00 82 1019.5
20260502053539 37 360 0.0 0.0 0.00 0.00 0.00 82 1019.5
20260502053030 37 360 0.0 0.0 0.00 0.00 0.00 81 1019.5
20260502052524 38 360 0.0 0.0 0.00 0.00 0.00 81 1019.5
20260502052001 38 360 0.0 0.0 0.00 0.00 0.00 81 1019.5
20260502051556 38 360 0.0 0.0 0.00 0.00 0.00 80 1019.5
20260502051016 38 360 0.0 0.0 0.00 0.00 0.00 80 1019.6
20260502050533 38 360 0.0 0.0 0.00 0.00 0.00 80 1019.5
20260502050031 38 360 0.0 0.0 0.00 0.00 0.00 79 1019.4
20260502045559 38 360 0.0 0.0 0.00 0.00 0.00 80 1019.4
20260502045054 38 360 0.0 0.0 0.00 0.00 0.00 79 1019.3
20260502044526 38 360 0.0 0.0 0.00 0.00 0.00 78 1019.4
20260502044108 38 360 0.0 0.0 0.00 0.00 0.00 76 1019.4
20260502043518 39 360 0.0 0.0 0.00 0.00 0.00 76 1019.4
20260502043106 39 360 0.0 0.0 0.00 0.00 0.00 77 1019.4
20260502042537 39 360 0.0 0.0 0.00 0.00 0.00 75 1019.4
20260502042002 39 360 0.0 0.0 0.00 0.00 0.00 74 1019.3
20260502041601 40 360 0.0 0.0 0.00 0.00 0.00 75 1019.3
20260502041005 40 360 0.0 0.0 0.00 0.00 0.00 74 1019.4
20260502040525 40 360 0.0 0.0 0.00 0.00 0.00 72 1019.4
20260502040047 40 360 0.0 0.0 0.00 0.00 0.00 68 1019.3
20260502035517 40 360 0.0 0.0 0.00 0.00 0.00 62 1019.4
20260502035035 41 360 0.0 0.0 0.00 0.00 0.00 63 1019.3
20260502034555 41 360 0.0 0.0 0.00 0.00 0.00 65 1019.3
20260502034034 41 360 0.0 0.0 0.00 0.00 0.00 64 1019.4
20260502033502 41 360 0.0 0.0 0.00 0.00 0.00 62 1019.4
20260502033030 42 360 0.0 0.0 0.00 0.00 0.00 61 1019.5
20260502032511 42 360 0.0 0.0 0.00 0.00 0.00 60 1019.5
20260502032041 43 360 0.0 0.0 0.00 0.00 0.00 58 1019.5
20260502031607 43 360 0.0 0.0 0.00 0.00 0.00 57 1019.4
20260502031036 43 360 0.0 0.0 0.00 0.00 0.00 58 1019.4
20260502030555 43 360 0.0 0.0 0.00 0.00 0.00 57 1019.4
20260502030020 44 360 0.0 0.0 0.00 0.00 0.00 57 1019.4
20260502025551 44 360 0.0 0.0 0.00 0.00 0.00 56 1019.4
20260502025019 44 360 0.0 0.0 0.00 0.00 0.00 55 1019.4
20260502024548 44 360 0.0 0.0 0.00 0.00 0.00 54 1019.4
20260502024103 44 360 0.0 0.0 0.00 0.00 0.00 54 1019.4
20260502023536 45 360 0.0 0.0 0.00 0.00 0.00 52 1019.4
20260502023005 45 360 0.0 0.0 0.00 0.00 0.00 53 1019.4
20260502022524 45 360 0.0 0.0 0.00 0.00 0.00 53 1019.3
20260502022008 45 360 0.0 0.0 0.00 0.00 0.00 52 1019.3
20260502021543 45 360 0.0 0.0 0.00 0.00 0.00 51 1019.3
20260502021106 46 360 0.0 0.0 0.00 0.00 0.00 52 1019.2
20260502020532 46 360 0.0 0.0 0.00 0.00 0.00 51 1019.2
20260502020059 47 360 0.0 0.0 0.00 0.00 0.00 52 1019.2
20260502015533 47 360 0.0 0.0 0.00 0.00 0.00 48 1019.1
20260502015111 47 360 0.0 0.0 0.00 0.00 0.00 48 1019.0
20260502014521 48 360 0.0 0.0 0.00 0.00 0.00 46 1019.0
20260502014040 48 360 0.0 0.0 0.00 0.00 0.00 46 1018.9
20260502013603 48 360 0.0 1.0 0.00 0.00 0.00 46 1018.9
20260502013011 49 360 0.0 1.0 0.00 0.00 0.00 44 1018.9
20260502012557 49 360 0.0 1.0 0.00 0.00 0.00 43 1018.8
20260502012031 50 360 0.0 1.0 0.00 0.00 0.00 42 1018.8
20260502011609 50 360 0.0 1.0 0.00 0.00 0.00 42 1018.8
20260502011034 50 360 0.0 4.0 0.00 0.00 0.00 41 1018.8
20260502010506 50 339 1.0 4.0 0.00 0.00 0.00 41 1018.8
20260502010101 51 239 0.0 3.0 0.00 0.00 0.00 41 1018.8
20260502005511 51 184 1.0 4.0 0.00 0.00 0.00 40 1018.7
20260502005044 51 319 0.0 5.0 0.00 0.00 0.00 40 1018.8
20260502004503 51 329 2.0 5.0 0.00 0.00 0.00 40 1018.8
20260502004047 51 321 2.0 5.0 0.00 0.00 0.00 39 1018.7
20260502003606 51 320 1.0 4.0 0.00 0.00 0.00 40 1018.7
20260502003016 51 325 2.0 6.0 0.00 0.00 0.00 40 1018.8
20260502002546 51 314 3.0 6.0 0.00 0.00 0.00 40 1018.8
20260502002036 50 329 0.0 4.0 0.00 0.00 0.00 40 1018.8
20260502001624 50 338 1.0 4.0 0.00 0.00 0.00 41 1018.7
20260502001005 50 173 1.0 3.0 0.00 0.00 0.00 40 1018.6
20260502000549 51 182 0.0 2.0 0.00 0.00 0.00 40 1018.7
20260502000124 51 182 0.0 2.0 0.00 0.00 0.00 40 1018.7
20260501235542 51 191 1.0 4.0 0.00 0.00 0.00 40 1018.6
20260501235103 51 88 1.0 4.0 0.00 0.00 0.00 39 1018.6
20260501234533 52 128 1.0 6.0 0.00 0.00 0.00 38 1018.6
20260501234058 52 216 0.0 2.0 0.00 0.00 0.00 39 1018.7
20260501233507 51 218 0.0 2.0 0.00 0.00 0.00 38 1018.7
20260501233027 51 203 0.0 3.0 0.00 0.00 0.00 40 1018.7
20260501232503 51 254 2.0 3.0 0.00 0.00 0.00 39 1018.7
20260501232040 51 206 0.0 3.0 0.00 0.00 0.00 39 1018.6
20260501231608 51 128 0.0 5.0 0.00 0.00 0.00 40 1018.7
20260501231053 52 126 1.0 5.0 0.00 0.00 0.00 39 1018.7
20260501230524 53 256 1.0 5.0 0.00 0.00 0.00 38 1018.7
20260501230054 53 335 0.0 5.0 0.00 0.00 0.00 38 1018.7
20260501225513 53 314 1.0 6.0 0.00 0.00 0.00 42 1018.7
20260501225041 52 126 1.0 6.0 0.00 0.00 0.00 38 1018.7
20260501224551 52 157 1.0 6.0 0.00 0.00 0.00 38 1018.7
20260501224109 52 213 1.0 4.0 0.00 0.00 0.00 40 1018.7
20260501223519 52 205 0.0 6.0 0.00 0.00 0.00 40 1018.6
20260501223039 52 142 1.0 6.0 0.00 0.00 0.00 39 1018.7
20260501222513 51 132 0.0 4.0 0.00 0.00 0.00 41 1018.8
20260501222033 52 119 0.0 9.0 0.00 0.00 0.00 40 1018.8
20260501221600 52 119 4.0 9.0 0.00 0.00 0.00 37 1018.8
20260501221030 53 136 2.0 4.0 0.00 0.00 0.00 37 1018.8
20260501220547 53 330 0.0 4.0 0.00 0.00 0.00 39 1018.8
20260501220025 53 321 2.0 8.0 0.00 0.00 0.00 38 1018.8
20260501215543 54 315 3.0 8.0 0.00 0.00 0.00 36 1018.8
20260501215011 54 165 0.0 3.0 0.00 0.00 0.00 38 1018.8
20260501214537 54 277 0.0 4.0 0.00 0.00 0.00 38 1018.7
20260501214007 53 321 2.0 5.0 0.00 0.00 0.00 41 1018.7
20260501213539 53 328 1.0 5.0 0.00 0.00 0.00 37 1018.7
20260501213025 53 43 1.0 3.0 0.00 0.00 0.00 41 1018.8
20260501212543 52 215 0.0 4.0 0.00 0.00 0.00 40 1018.8
20260501212028 52 292 0.0 6.0 0.00 0.00 0.00 41 1018.8
20260501211602 52 304 2.0 4.0 0.00 0.00 0.00 40 1018.9
20260501211037 52 315 0.0 6.0 0.00 0.00 0.00 39 1018.9
20260501210601 52 143 2.0 6.0 0.00 0.00 0.00 39 1018.9
20260501210014 52 167 1.0 6.0 0.00 0.00 0.00 38 1018.9
20260501205600 52 169 1.0 6.0 0.00 0.00 0.00 38 1018.9
20260501205005 52 313 2.0 6.0 0.00 0.00 0.00 37 1018.9
20260501204530 53 177 2.0 6.0 0.00 0.00 0.00 35 1019.0
20260501204004 53 125 2.0 5.0 0.00 0.00 0.00 41 1019.0
20260501203530 53 150 2.0 6.0 0.00 0.00 0.00 37 1019.0
20260501203100 54 150 3.0 6.0 0.00 0.00 0.00 37 1019.0
20260501202526 54 122 2.0 10.0 0.00 0.00 0.00 36 1019.0
20260501202007 55 285 3.0 10.0 0.00 0.00 0.00 37 1019.0
20260501201558 55 330 1.0 12.0 0.00 0.00 0.00 40 1019.0
20260501201050 53 344 5.0 12.0 0.00 0.00 0.00 40 1019.0
20260501200530 52 129 2.0 9.0 0.00 0.00 0.00 40 1019.0
20260501200049 52 138 2.0 6.0 0.00 0.00 0.00 38 1019.1